Date String (YYYY-MM-DD hh:mm:ss) UTC,Instrument flags,Ambient pressure (hPa),Sample flow (lpm),Bypass flow (lpm),Sample temperature (°C),Ambient temperature (°C),ASC tube jacket temperature (°C),LED temperature (°C),Box temperature (°C),Sample RH (%),Span deviation,Mass concentration (μg/m³),Mass concentration (μg/m³),Mass concentration (μg/m³)
DateTimeUTC,F1_M11,P_M11,Q1_M11,Q2_M11,T1_M11,T2_M11,T3_M11,T4_M11,T5_M11,U1_M11,ZSPAN_M11,X0_M11,X2_M11,X1_M11
2022-06-21 19:00:00,,0834.4,4.99,0.00,29.4,28.3,00.0,38.1,31.3,15.0,0000.0,0010.85,0003.44,0001.57
2022-06-21 19:01:00,,0834.4,4.99,0.00,29.4,28.4,00.0,38.1,31.3,14.9,0000.0,0010.34,0003.40,0001.57
2022-06-21 19:02:00,,0834.4,5.01,0.00,29.4,28.5,00.0,38.1,31.4,14.9,0000.0,0009.97,0003.32,0001.58
2022-06-21 19:03:00,,0834.4,5.00,0.00,29.4,28.4,00.0,38.1,31.4,14.9,0000.0,0009.53,0003.32,0001.57
2022-06-21 19:04:00,,0834.4,4.99,0.00,29.4,27.8,00.0,38.1,31.2,14.9,0000.0,0009.42,0003.32,0001.58
2022-06-21 19:05:00,,0834.4,5.01,0.00,29.4,27.5,00.0,38.1,31.1,14.8,0000.0,0009.30,0003.31,0001.59
2022-06-21 19:06:00,,0834.4,5.00,0.00,29.3,27.5,00.0,38.1,31.1,14.8,0000.0,0008.86,0003.26,0001.58
2022-06-21 19:07:00,,0834.4,5.01,0.00,29.3,27.6,00.0,38.1,31.1,14.8,0000.0,0008.23,0003.23,0001.59
2022-06-21 19:08:00,,0834.4,5.00,0.00,29.3,27.7,00.0,38.1,31.1,14.7,0000.0,0008.13,0003.19,0001.58
2022-06-21 19:09:00,,0834.4,4.99,0.00,29.3,27.8,00.0,38.1,31.2,14.6,0000.0,0007.86,0003.21,0001.58
2022-06-21 19:10:00,,0834.5,5.00,0.00,29.3,27.9,00.0,38.1,31.2,14.5,0000.0,0008.07,0003.22,0001.58
2022-06-21 19:11:00,,0834.4,5.01,0.00,29.3,28.1,00.0,38.1,31.2,14.5,0000.0,0008.14,0003.23,0001.58
2022-06-21 19:12:00,,0834.4,5.00,0.00,29.3,28.2,00.0,38.1,31.3,14.5,0000.0,0008.30,0003.24,0001.57
2022-06-21 19:13:00,,0834.4,5.00,0.00,29.4,28.3,00.0,38.1,31.3,14.5,0000.0,0008.29,0003.21,0001.56
2022-06-21 19:14:00,,0834.4,4.99,0.00,29.4,28.4,00.0,38.1,31.3,14.5,0000.0,0008.38,0003.21,0001.56
2022-06-21 19:15:00,,0834.4,5.00,0.00,29.4,28.5,00.0,38.1,31.4,14.5,0000.0,0008.40,0003.21,0001.55
2022-06-21 19:16:00,,0834.4,5.02,0.00,29.4,28.3,00.0,38.1,31.4,14.5,0000.0,0008.53,0003.19,0001.53
2022-06-21 19:17:00,,0834.4,5.01,0.00,29.4,27.4,00.0,38.1,31.2,14.6,0000.0,0009.01,0003.20,0001.53
2022-06-21 19:18:00,,0834.4,4.99,0.00,29.3,26.9,00.0,38.0,31.0,14.5,0000.0,0009.31,0003.27,0001.54
2022-06-21 19:19:00,,0834.3,5.00,0.00,29.2,26.8,00.0,38.0,30.9,14.3,0000.0,0009.71,0003.33,0001.55
2022-06-21 19:20:00,,0834.4,5.00,0.00,29.2,26.9,00.0,38.0,30.9,14.5,0000.0,0009.55,0003.33,0001.54
2022-06-21 19:21:00,,0834.4,5.00,0.00,29.1,27.1,00.0,38.0,30.9,14.6,0000.0,0009.29,0003.29,0001.54
2022-06-21 19:22:00,,0834.4,5.01,0.00,29.1,27.3,00.0,38.0,30.9,14.7,0000.0,0009.17,0003.24,0001.53
2022-06-21 19:23:00,,0834.4,5.00,0.00,29.1,27.4,00.0,38.0,31.0,14.7,0000.0,0009.03,0003.23,0001.55
2022-06-21 19:24:00,,0834.4,4.98,0.00,29.1,27.6,00.0,38.0,31.0,14.7,0000.0,0009.17,0003.26,0001.56
2022-06-21 19:25:00,,0834.5,5.00,0.00,29.1,27.8,00.0,38.0,31.1,14.7,0000.0,0009.78,0003.25,0001.56
2022-06-21 19:26:00,,0834.4,5.00,0.00,29.2,27.9,00.0,38.0,31.1,14.9,0000.0,0010.08,0003.20,0001.55
2022-06-21 19:27:00,,0834.4,5.00,0.00,29.2,28.0,00.0,38.0,31.1,14.9,0000.0,0009.94,0003.21,0001.56
2022-06-21 19:28:00,,0834.4,5.00,0.00,29.2,28.1,00.0,38.0,31.2,14.8,0000.0,0010.05,0003.20,0001.55
2022-06-21 19:29:00,,0834.4,5.00,0.00,29.3,28.2,00.0,38.0,31.2,14.7,0000.0,0010.55,0003.18,0001.54
2022-06-21 19:30:00,,0834.4,5.00,0.00,29.3,28.3,00.0,38.0,31.2,14.6,0000.0,0010.10,0003.13,0001.54
2022-06-21 19:31:00,,0834.4,5.01,0.00,29.3,28.4,00.0,38.0,31.3,14.6,0000.0,0010.37,0003.15,0001.56
2022-06-21 19:32:00,,0834.4,4.99,0.00,29.3,28.5,00.0,38.1,31.3,14.6,0000.0,0010.40,0003.18,0001.56
2022-06-21 19:33:00,,0834.4,5.01,0.00,29.4,28.5,00.0,38.1,31.3,14.5,0000.0,0010.73,0003.23,0001.58
2022-06-21 19:34:00,,0834.4,5.00,0.00,29.4,28.1,00.0,38.1,31.2,14.6,0000.0,0011.56,0003.22,0001.58
2022-06-21 19:35:00,,0834.3,4.99,0.00,29.3,27.5,00.0,38.0,31.1,14.6,0000.0,0011.39,0003.20,0001.58
2022-06-21 19:36:00,,0834.3,5.00,0.00,29.3,27.4,00.0,38.0,31.1,14.7,0000.0,0010.57,0003.17,0001.58
2022-06-21 19:37:00,,0834.3,5.00,0.00,29.3,27.5,00.0,38.0,31.1,14.8,0000.0,0010.28,0003.18,0001.60
2022-06-21 19:38:00,,0834.3,5.00,0.00,29.2,27.6,00.0,38.0,31.1,14.9,0000.0,0010.23,0003.21,0001.61
2022-06-21 19:39:00,,0834.3,5.00,0.00,29.2,27.7,00.0,38.0,31.1,15.1,0000.0,0010.24,0003.24,0001.63
2022-06-21 19:40:00,,0834.3,5.01,0.00,29.2,27.9,00.0,38.0,31.1,15.0,0000.0,0009.59,0003.22,0001.64
2022-06-21 19:41:00,,0834.3,4.99,0.00,29.3,28.0,00.0,38.0,31.2,14.9,0000.0,0009.71,0003.27,0001.65
2022-06-21 19:42:00,,0834.3,5.01,0.00,29.3,28.1,00.0,38.0,31.2,14.7,0000.0,0009.92,0003.30,0001.65
2022-06-21 19:43:00,,0834.3,5.00,0.00,29.3,28.2,00.0,38.1,31.3,14.6,0000.0,0010.41,0003.35,0001.65
2022-06-21 19:44:00,,0834.3,5.00,0.00,29.3,28.3,00.0,38.1,31.3,14.5,0000.0,0010.95,0003.35,0001.65
2022-06-21 19:45:00,,0834.3,5.01,0.00,29.4,28.4,00.0,38.1,31.3,14.6,0000.0,0009.92,0003.35,0001.67
2022-06-21 19:46:00,,0834.3,4.98,0.00,29.4,28.5,00.0,38.1,31.4,14.6,0000.0,0010.74,0003.43,0001.68
2022-06-21 19:47:00,,0834.3,5.00,0.00,29.4,28.3,00.0,38.1,31.3,14.6,0000.0,0011.87,0003.49,0001.69
2022-06-21 19:48:00,,0834.3,4.97,0.00,29.4,27.5,00.0,38.1,31.1,14.6,0000.0,0012.14,0003.50,0001.70
2022-06-21 19:49:00,,0834.3,5.00,0.00,29.3,26.9,00.0,38.0,30.9,14.7,0000.0,0012.17,0003.52,0001.71
2022-06-21 19:50:00,,0834.3,5.00,0.00,29.2,26.9,00.0,38.0,30.9,15.0,0000.0,0012.35,0003.51,0001.72
2022-06-21 19:51:00,,0834.2,4.99,0.00,29.2,27.0,00.0,38.0,30.9,15.1,0000.0,0012.32,0003.51,0001.73
2022-06-21 19:52:00,,0834.3,5.00,0.00,29.1,27.1,00.0,38.0,30.9,15.2,0000.0,0012.35,0003.46,0001.72
2022-06-21 19:53:00,,0834.2,5.02,0.00,29.1,27.3,00.0,38.0,30.9,15.3,0000.0,0011.86,0003.46,0001.72
2022-06-21 19:54:00,,0834.3,4.99,0.00,29.1,27.5,00.0,37.9,31.0,15.5,0000.0,0011.76,0003.38,0001.72
2022-06-21 19:55:00,,0834.3,5.00,0.00,29.1,27.7,00.0,37.9,31.0,15.5,0000.0,0011.13,0003.35,0001.72
2022-06-21 19:56:00,,0834.3,5.00,0.00,29.2,27.8,00.0,38.0,31.1,15.5,0000.0,0011.70,0003.40,0001.72
2022-06-21 19:57:00,,0834.3,5.01,0.00,29.2,28.0,00.0,38.0,31.1,15.5,0000.0,0011.33,0003.38,0001.72
2022-06-21 19:58:00,,0834.3,5.01,0.00,29.2,28.1,00.0,38.0,31.2,15.4,0000.0,0010.26,0003.33,0001.72
2022-06-21 19:59:00,,0834.3,4.99,0.00,29.2,28.2,00.0,38.0,31.2,15.5,0000.0,0009.98,0003.37,0001.72
